DW9489 Weather Reports


time (UTC)temp
C
wind
direction
speed
KPH
gust
KPH
rain 1hr
cm
rain 24hr
cm
rain mn
cm
humidity
%
barometer
mb
20260507094555 10 159 0.0 3.2 0.00 0.00 0.00 88 1020.5
20260507093049 10 0 0.0 6.4 0.00 0.00 0.00 88 1020.6
20260507091538 10 0 0.0 4.8 0.00 0.00 0.00 88 1020.4
20260507090044 10 0 0.0 8.0 0.00 0.00 0.00 89 1020.6
20260507084542 10 0 0.0 6.4 0.00 0.00 0.00 89 1020.5
20260507083049 10 172 3.2 8.0 0.00 0.00 0.00 89 1020.5
20260507081543 10 141 1.6 8.0 0.00 0.00 0.00 89 1020.6
20260507080044 10 171 1.6 8.0 0.00 0.00 0.00 90 1020.5
20260507074548 10 177 3.2 9.7 0.00 0.00 0.00 90 1020.3
20260507073049 10 199 3.2 9.7 0.00 0.00 0.00 91 1020.5
20260507071546 10 151 3.2 6.4 0.00 0.00 0.00 91 1020.3
20260507070054 10 187 1.6 6.4 0.00 0.00 0.00 92 1020.3
20260507064550 11 184 3.2 8.0 0.00 0.00 0.00 92 1020.4
20260507063042 11 173 1.6 11.3 0.00 0.00 0.00 92 1020.4
20260507061545 11 175 1.6 9.7 0.00 0.00 0.00 91 1020.4
20260507060048 11 181 1.6 6.4 0.00 0.00 0.00 91 1020.5
20260507054542 11 0 1.6 4.8 0.00 0.00 0.00 90 1020.6
20260507053048 11 173 0.0 4.8 0.00 0.00 0.00 90 1020.5
20260507051544 11 0 0.0 8.0 0.00 0.00 0.00 89 1020.5
20260507050053 11 0 1.6 11.3 0.00 0.00 0.00 89 1020.4
20260507044557 11 169 0.0 6.4 0.00 0.00 0.00 88 1020.4
20260507043048 11 0 0.0 4.8 0.00 0.00 0.00 88 1020.4
20260507041547 11 0 0.0 4.8 0.00 0.00 0.00 88 1020.3
20260507040046 12 186 1.6 8.0 0.00 0.00 0.00 86 1020.4
20260507034550 12 0 0.0 3.2 0.00 0.00 0.00 85 1020.3
20260507033100 12 165 0.0 3.2 0.00 0.00 0.00 84 1020.2
20260507031558 12 0 1.6 11.3 0.00 0.00 0.00 83 1020.1
20260507024605 12 192 0.0 8.0 0.00 0.00 0.00 82 1019.9
20260507023043 12 0 0.0 11.3 0.00 0.00 0.00 81 1019.7
20260507021552 13 157 1.6 11.3 0.00 0.00 0.00 81 1019.8
20260507020054 13 184 3.2 11.3 0.00 0.00 0.00 80 1019.7
20260507014552 13 192 1.6 8.0 0.00 0.00 0.00 81 1019.7
20260507013045 13 177 0.0 8.0 0.00 0.00 0.00 81 1019.8
20260507011552 13 186 0.0 4.8 0.00 0.00 0.00 81 1019.9
20260507010047 13 176 1.6 9.7 0.00 0.00 0.00 81 1019.8
20260507004542 13 0 0.0 11.3 0.00 0.00 0.00 82 1019.9
20260507003042 13 0 3.2 12.9 0.00 0.00 0.00 81 1020.0
20260507001543 13 154 1.6 8.0 0.00 0.00 0.00 81 1019.9
20260507000049 13 185 0.0 8.0 0.00 0.00 0.00 81 1019.9
20260506234553 13 0 1.6 12.9 0.00 0.00 0.00 81 1019.9
20260506233048 13 188 3.2 9.7 0.00 0.00 0.00 80 1020.0
20260506231544 13 0 1.6 14.5 0.00 0.00 0.00 80 1020.1
20260506224543 13 157 0.0 6.4 0.00 0.00 0.00 78 1020.0
20260506223045 13 0 1.6 8.0 0.00 0.00 0.00 78 1020.1
20260506221548 13 208 1.6 14.5 0.00 0.00 0.00 77 1020.2
20260506220042 14 192 1.6 14.5 0.00 0.00 0.00 76 1020.2
20260506214547 13 165 1.6 14.5 0.00 0.00 0.00 77 1020.1
20260506213047 13 0 3.2 9.7 0.00 0.00 0.00 77 1020.3
20260506211543 13 175 1.6 16.1 0.00 0.00 0.00 78 1020.4
20260506210050 13 140 1.6 9.7 0.00 0.00 0.00 78 1020.2
20260506204548 13 178 0.0 8.0 0.00 0.00 0.00 79 1020.2
20260506203044 13 190 3.2 9.7 0.00 0.00 0.00 78 1020.1
20260506201545 13 0 0.0 9.7 0.00 0.00 0.00 79 1020.1
20260506200044 13 159 1.6 11.3 0.00 0.00 0.00 80 1020.1
20260506194549 12 156 1.6 6.4 0.00 0.00 0.00 81 1020.0
20260506193043 12 191 3.2 11.3 0.00 0.00 0.00 82 1020.0
20260506191545 12 155 1.6 14.5 0.00 0.00 0.00 83 1019.9
20260506190049 12 178 3.2 11.3 0.00 0.00 0.00 85 1019.8
20260506184554 11 0 3.2 9.7 0.00 0.00 0.00 86 1019.9
20260506183045 11 187 0.0 9.7 0.00 0.00 0.00 88 1019.9
20260506181542 11 0 0.0 11.3 0.00 0.00 0.00 89 1019.9
20260506180047 11 0 0.0 3.2 0.00 0.00 0.00 91 1019.7
20260506174541 11 0 1.6 12.9 0.00 0.00 0.00 92 1019.6
20260506173121 11 0 1.6 8.0 0.00 0.00 0.00 93 1019.6
20260506171542 11 0 0.0 4.8 0.00 0.00 0.00 94 1019.6
20260506170053 10 182 4.8 14.5 0.00 0.00 0.00 94 1019.6
20260506164548 10 188 1.6 9.7 0.00 0.00 0.00 94 1019.6
20260506163044 10 182 3.2 11.3 0.00 0.00 0.00 94 1019.4
20260506161612 10 166 0.0 9.7 0.00 0.00 0.00 94 1019.1
20260506160046 10 179 1.6 9.7 0.00 0.00 0.00 94 1018.9
20260506154555 10 178 3.2 9.7 0.00 0.00 0.00 94 1019.2
20260506153051 10 0 1.6 8.0 0.00 0.00 0.00 94 1019.6
20260506151548 10 187 3.2 8.0 0.00 0.00 0.00 94 1019.3
20260506150049 10 123 1.6 8.0 0.00 0.00 0.00 94 1019.0
20260506144543 10 174 3.2 9.7 0.00 0.00 0.00 94 1019.2
20260506143047 10 194 0.0 11.3 0.00 0.00 0.00 93 1019.4
20260506141547 10 182 3.2 9.7 0.00 0.00 0.00 93 1018.9
20260506140045 11 161 3.2 9.7 0.00 0.00 0.00 93 1018.6
20260506134544 11 0 1.6 6.4 0.00 0.00 0.00 92 1019.0
20260506133041 11 171 0.0 6.4 0.00 0.00 0.00 91 1018.7
20260506131552 11 186 0.0 4.8 0.00 0.00 0.00 91 1018.5
20260506130100 11 182 3.2 9.7 0.00 0.00 0.00 91 1018.1
20260506124553 11 168 0.0 6.4 0.00 0.00 0.00 91 1018.2
20260506123043 11 167 0.0 8.0 0.00 0.00 0.00 91 1018.2
20260506121541 11 175 1.6 8.0 0.00 0.00 0.00 91 1018.1
20260506120101 11 169 0.0 8.0 0.00 0.00 0.00 90 1017.9
20260506114546 11 0 1.6 11.3 0.00 0.00 0.00 90 1017.8
20260506113052 11 169 1.6 12.9 0.00 0.00 0.00 90 1017.7
20260506111542 11 171 3.2 8.0 0.00 0.00 0.00 89 1017.8
20260506110051 11 0 1.6 8.0 0.00 0.00 0.00 89 1017.7
20260506104551 11 0 3.2 6.4 0.00 0.00 0.00 89 1017.5
20260506103053 11 0 0.0 4.8 0.00 0.00 0.00 89 1017.3
20260506101551 11 0 0.0 3.2 0.00 0.00 0.00 89 1017.2
20260506100101 11 185 1.6 8.0 0.00 0.00 0.00 89 1017.2